Regional Weather Roundup
Issued by NWS

Home | Current Version | Previous Version | Graphics & Text | Print | Product List | Glossary On
Versions: 1 2 3 4 5 6 7 8 9 10 11 12 13 14 15 16 17 18 19 20 21 22 23 24 25 26 27 28 29 30 31 32 33 34 35 36 37 38 39 40 41 42 43 44 45 46 47 48 49 50
000
ASUS43 KDMX 051408
RWRIA

WEATHER ROUNDUP FOR IOWA
NATIONAL WEATHER SERVICE DES MOINES IA
900 AM CDT THU MAY 05 2016

NOTE: "FAIR" INDICATES FEW OR NO CLOUDS BELOW 12,000 FEET WITH NO
SIGNIFICANT WEATHER AND/OR OBSTRUCTIONS TO VISIBILITY.

* - THESE STATIONS ARE NOT NWS STATIONS...THUS NOT UNDER NWS
QUALITY CONTROL.  THEY ALSO DO NOT REPORT WEATHER SUCH
AS PRECIPITATION OR FOG.

IAZ001>003-012>014-020>022-031>034-043>046-051500-
   NORTHWEST IOWA

CITY           SKY/WX    TMP DP  RH WIND       PRES   REMARKS
CARROLL *      SUNNY     54  41  62 CALM      30.09R
CHEROKEE *     SUNNY     50  46  87 CALM      30.08S
DENISON *      SUNNY     50  43  76 CALM      30.07R
LE MARS *      SUNNY     50  43  76 CALM      30.09S
ORANGE CITY *  SUNNY     55  41  58 CALM      30.07S
SHELDON *      SUNNY     55  37  50 SW5       30.06R
SIOUX CITY     SUNNY     56  45  66 CALM      30.08S
SPENCER        SUNNY     53  40  61 S3        30.08R
STORM LAKE *   SUNNY     57  32  38 S6        30.09R
$$

IAZ055>058-069>071-079>083-090>094-051500-
   SOUTHWEST IOWA

CITY           SKY/WX    TMP DP  RH WIND       PRES   REMARKS
ATLANTIC *     SUNNY     50  43  76 CALM      30.09R
AUDUBON *      SUNNY     52  43  71 CALM      30.09R
CLARINDA *       N/A     52  46  82 MISG      30.10
COUNCIL BLFS * SUNNY     57  43  58 CALM      30.09R
CRESTON *      SUNNY     55  39  54 E6        30.10R
HARLAN  *      SUNNY     50  43  76 CALM      30.12R
LAMONI         SUNNY     54  36  50 NE5       30.08R
RED OAK *      SUNNY     54  45  71 CALM      30.09R
SHENANDOAH *   SUNNY     54  46  76 NE3       30.09S
$$

IAZ047>049-059>061-072>074-084-051500-
   CENTRAL IOWA

CITY           SKY/WX    TMP DP  RH WIND       PRES   REMARKS
AMES           SUNNY     51  36  56 CALM      30.09R
ANKENY *       SUNNY     54  37  54 E3        30.10R
BOONE *        SUNNY     54  32  43 SE7       30.08R
CHARITON *     SUNNY     54  37  54 NE6       30.09R
DES MOINES     PTSUNNY   56  32  40 SE6       30.10R
GRINNELL*      PTSUNNY   52  34  50 NE7       30.09S
KNOXVILLE *    SUNNY     52  34  50 E5        30.08R
MARSHALLTOWN   CLOUDY    50  37  61 SE3       30.09R
NEWTON *       MOSUNNY   52  36  54 E6        30.09R
PERRY *          N/A     54  37  54 SE6       30.09R
$$

IAZ004>006-015-016-023>025-035-036-051500-
   NORTH CENTRAL IOWA

CITY           SKY/WX    TMP DP  RH WIND       PRES   REMARKS
ALGONA *       MOSUNNY   54  32  43 SE8       30.10R
CLARION *      MOSUNNY   54  30  40 S6        30.10R
ESTHERVILLE    SUNNY     52  38  58 S7        30.08R
FORT DODGE *   MOSUNNY   52  34  50 CALM      30.09S
MASON CITY     PTSUNNY   49  31  49 E3        30.11R
FOREST CITY *  PTSUNNY   50  37  62 CALM      30.10R
WEBSTER CITY * MOSUNNY   54  34  47 S7        30.08R
IOWA FALLS *   PTSUNNY   50  32  50 CALM      30.11R
$$

IAZ007>011-017>019-026>030-037>042-050>054-066-051500-
   NORTHEAST IOWA

CITY           SKY/WX    TMP DP  RH WIND       PRES   REMARKS
CEDAR RAPIDS   SUNNY     51  37  58 NE7       30.07R
CHARLES CITY * PTSUNNY   52  32  46 CALM      30.10R
CLINTON *      SUNNY     47  38  71 NE8       30.07R
DECORAH *      SUNNY     48  34  57 NW5       30.08R
DUBUQUE        SUNNY     48  35  60 N13       30.06R
MONTICELLO *   SUNNY     50  36  57 NE8       30.07R
OELWEIN *      SUNNY     50  34  53 N6        30.09R
WATERLOO       MOSUNNY   53  33  46 NE3       30.09R
$$

IAZ064-065-067-068-078-051500-
   EAST CENTRAL IOWA

CITY           SKY/WX    TMP DP  RH WIND       PRES   REMARKS
DAVENPORT      SUNNY     48  36  63 N10       30.06R
IOWA CITY      SUNNY     51  36  56 N12       30.09R
MT. PLEASANT * SUNNY     54  39  58 N8        30.07R
MUSCATINE *    SUNNY     50  37  62 NE9       30.08R
$$

IAZ062-063-075>077-085>089-095>099-051500-
   SOUTHEAST IOWA

CITY           SKY/WX    TMP DP  RH WIND       PRES   REMARKS
BURLINGTON     SUNNY     51  40  65 NE7       30.06R
FAIRFIELD *    SUNNY     52  36  54 N7        30.08R
FORT MADISON * SUNNY     50  39  66 N6        30.07R
KEOKUK *       SUNNY     52  39  62 N7        30.06R
OSKALOOSA *      N/A     52  36  54 NE6       30.09R
OTTUMWA        SUNNY     52  35  52 N7        30.08R
WASHINGTON *   SUNNY     50  37  62 NE10      30.08S
$$

ABBREVIATIONS USED IN REMARKS
   TC - TEMPERATURES IN CELSIUS
  WCI - WIND CHILL INDEX
   HX - HEAT INDEX
  VSB - VISIBILITY
$$




USA.gov is the U.S. government's official web portal to all federal, state and local government web resources and services.